Year,Month,Day,Hour,Minute,Value (Times are PST for temperature in C)
2014,08,24,00,00,11.40
2014,08,24,00,04,11.50
2014,08,24,00,05,11.50
2014,08,24,00,06,11.50
2014,08,24,00,07,11.50
2014,08,24,00,08,11.50
2014,08,24,00,09,11.50
2014,08,24,00,10,11.50
2014,08,24,00,11,11.50
2014,08,24,00,12,11.50
2014,08,24,00,13,11.50
2014,08,24,00,14,11.50
2014,08,24,00,15,11.50
2014,08,24,00,19,11.50
2014,08,24,00,20,11.50
2014,08,24,00,21,11.50
2014,08,24,00,22,11.50
2014,08,24,00,23,11.50
2014,08,24,00,24,11.50
2014,08,24,00,25,11.50
2014,08,24,00,26,11.50
2014,08,24,00,27,11.50
2014,08,24,00,28,11.50
2014,08,24,00,29,11.50
2014,08,24,00,30,11.50
2014,08,24,00,34,11.40
2014,08,24,00,35,11.40
2014,08,24,00,36,11.40
2014,08,24,00,37,11.40
2014,08,24,00,38,11.40
2014,08,24,00,39,11.40
2014,08,24,00,40,11.40
2014,08,24,00,41,11.40
2014,08,24,00,42,11.40
2014,08,24,00,43,11.40
2014,08,24,00,44,11.40
2014,08,24,00,45,11.40
2014,08,24,00,49,11.30
2014,08,24,00,50,11.30
2014,08,24,00,51,11.30
2014,08,24,00,52,11.30
2014,08,24,00,53,11.30
2014,08,24,00,54,11.30
2014,08,24,00,55,11.30
2014,08,24,00,56,11.30
2014,08,24,00,57,11.30
2014,08,24,00,58,11.30
2014,08,24,00,59,11.30
2014,08,24,01,00,11.30
2014,08,24,01,04,11.20
2014,08,24,01,05,11.20
2014,08,24,01,06,11.20
2014,08,24,01,07,11.20
2014,08,24,01,08,11.20
2014,08,24,01,09,11.20
2014,08,24,01,10,11.20
2014,08,24,01,11,11.20
2014,08,24,01,12,11.20
2014,08,24,01,13,11.20
2014,08,24,01,14,11.20
2014,08,24,01,15,11.20
2014,08,24,01,19,11.20
2014,08,24,01,20,11.20
2014,08,24,01,21,11.20
2014,08,24,01,22,11.20
2014,08,24,01,23,11.20
2014,08,24,01,24,11.20
2014,08,24,01,25,11.20
2014,08,24,01,26,11.20
2014,08,24,01,27,11.20
2014,08,24,01,28,11.20
2014,08,24,01,29,11.20
2014,08,24,01,30,11.20
2014,08,24,01,34,11.10
2014,08,24,01,35,11.10
2014,08,24,01,36,11.10
2014,08,24,01,37,11.10
2014,08,24,01,38,11.10
2014,08,24,01,39,11.10
2014,08,24,01,40,11.10
2014,08,24,01,41,11.10
2014,08,24,01,42,11.10
2014,08,24,01,43,11.10
2014,08,24,01,44,11.10
2014,08,24,01,45,11.10
2014,08,24,01,49,10.90
2014,08,24,01,50,10.90
2014,08,24,01,51,10.90
2014,08,24,01,52,10.90
2014,08,24,01,53,10.90
2014,08,24,01,54,10.90
2014,08,24,01,55,10.90
2014,08,24,01,56,10.90
2014,08,24,01,57,10.90
2014,08,24,01,58,10.90
2014,08,24,01,59,10.90
2014,08,24,02,00,10.90
2014,08,24,02,04,10.90
2014,08,24,02,05,10.90
2014,08,24,02,06,10.90
2014,08,24,02,07,10.90
2014,08,24,02,08,10.90
2014,08,24,02,09,10.90
2014,08,24,02,10,10.90
2014,08,24,02,11,10.90
2014,08,24,02,12,10.90
2014,08,24,02,13,10.90
2014,08,24,02,14,10.90
2014,08,24,02,15,10.90
2014,08,24,02,19,10.90
2014,08,24,02,20,10.90
2014,08,24,02,21,10.90
2014,08,24,02,22,10.90
2014,08,24,02,23,10.90
2014,08,24,02,24,10.90
2014,08,24,02,25,10.90
2014,08,24,02,26,10.90
2014,08,24,02,27,10.90
2014,08,24,02,28,10.90
2014,08,24,02,29,10.90
2014,08,24,02,30,10.90
2014,08,24,02,34,11.00
2014,08,24,02,35,11.00
2014,08,24,02,36,11.00
2014,08,24,02,37,11.00
2014,08,24,02,38,11.00
2014,08,24,02,39,11.00
2014,08,24,02,40,11.00
2014,08,24,02,41,11.00
2014,08,24,02,42,11.00
2014,08,24,02,43,11.00
2014,08,24,02,44,11.00
2014,08,24,02,45,11.00
2014,08,24,02,49,10.90
2014,08,24,02,50,10.90
2014,08,24,02,51,10.90
2014,08,24,02,52,10.90
2014,08,24,02,53,10.90
2014,08,24,02,54,10.90
2014,08,24,02,55,10.90
2014,08,24,02,56,10.90
2014,08,24,02,57,10.90
2014,08,24,02,58,10.90
2014,08,24,02,59,10.90
2014,08,24,03,00,10.90
2014,08,24,03,04,10.90
2014,08,24,03,05,10.90
2014,08,24,03,06,10.90
2014,08,24,03,07,10.90
2014,08,24,03,08,10.90
2014,08,24,03,09,10.90
2014,08,24,03,10,10.90
2014,08,24,03,11,10.90
2014,08,24,03,12,10.90
2014,08,24,03,13,10.90
2014,08,24,03,14,10.90
2014,08,24,03,15,10.90
2014,08,24,03,19,10.80
2014,08,24,03,20,10.80
2014,08,24,03,21,10.80
2014,08,24,03,22,10.80
2014,08,24,03,23,10.80
2014,08,24,03,24,10.80
2014,08,24,03,25,10.80
2014,08,24,03,26,10.80
2014,08,24,03,27,10.80
2014,08,24,03,28,10.80
2014,08,24,03,29,10.80
2014,08,24,03,30,10.80
2014,08,24,03,34,10.70
2014,08,24,03,35,10.70
2014,08,24,03,36,10.70
2014,08,24,03,37,10.70
2014,08,24,03,38,10.70
2014,08,24,03,39,10.70
2014,08,24,03,40,10.70
2014,08,24,03,41,10.70
2014,08,24,03,42,10.70
2014,08,24,03,43,10.70
2014,08,24,03,44,10.70
2014,08,24,03,45,10.70
2014,08,24,03,49,10.60
2014,08,24,03,50,10.60
2014,08,24,03,51,10.60
2014,08,24,03,52,10.60
2014,08,24,03,53,10.60
2014,08,24,03,54,10.60
2014,08,24,03,55,10.60
2014,08,24,03,56,10.60
2014,08,24,03,57,10.60
2014,08,24,03,58,10.60
2014,08,24,03,59,10.60
2014,08,24,04,00,10.60
2014,08,24,04,04,10.60
2014,08,24,04,05,10.60
2014,08,24,04,06,10.60
2014,08,24,04,07,10.60
2014,08,24,04,08,10.60
2014,08,24,04,09,10.60
2014,08,24,04,10,10.60
2014,08,24,04,11,10.60
2014,08,24,04,12,10.60
2014,08,24,04,13,10.60
2014,08,24,04,14,10.60
2014,08,24,04,15,10.60
2014,08,24,04,19,10.60
2014,08,24,04,20,10.60
2014,08,24,04,21,10.60
2014,08,24,04,22,10.60
2014,08,24,04,23,10.60
2014,08,24,04,24,10.60
2014,08,24,04,25,10.60
2014,08,24,04,26,10.60
2014,08,24,04,27,10.60
2014,08,24,04,28,10.60
2014,08,24,04,29,10.60
2014,08,24,04,30,10.60
2014,08,24,04,34,10.60
2014,08,24,04,35,10.60
2014,08,24,04,36,10.60
2014,08,24,04,37,10.60
2014,08,24,04,38,10.60
2014,08,24,04,39,10.60
2014,08,24,04,40,10.60
2014,08,24,04,41,10.60
2014,08,24,04,42,10.60
2014,08,24,04,43,10.60
2014,08,24,04,44,10.60
2014,08,24,04,45,10.60
2014,08,24,04,49,10.70
2014,08,24,04,50,10.70
2014,08,24,04,51,10.70
2014,08,24,04,52,10.70
2014,08,24,04,53,10.70
2014,08,24,04,54,10.70
2014,08,24,04,55,10.70
2014,08,24,04,56,10.70
2014,08,24,04,57,10.70
2014,08,24,04,58,10.70
2014,08,24,04,59,10.70
2014,08,24,05,00,10.70
2014,08,24,05,04,10.60
2014,08,24,05,05,10.60
2014,08,24,05,06,10.60
2014,08,24,05,07,10.60
2014,08,24,05,08,10.60
2014,08,24,05,09,10.60
2014,08,24,05,10,10.60
2014,08,24,05,11,10.60
2014,08,24,05,12,10.60
2014,08,24,05,13,10.60
2014,08,24,05,14,10.60
2014,08,24,05,15,10.60
2014,08,24,05,19,10.30
2014,08,24,05,20,10.30
2014,08,24,05,21,10.30
2014,08,24,05,22,10.30
2014,08,24,05,23,10.30
2014,08,24,05,24,10.30
2014,08,24,05,25,10.30
2014,08,24,05,26,10.30
2014,08,24,05,27,10.30
2014,08,24,05,28,10.30
2014,08,24,05,29,10.30
2014,08,24,05,30,10.30
2014,08,24,05,34,10.20
2014,08,24,05,35,10.20
2014,08,24,05,36,10.20
2014,08,24,05,37,10.20
2014,08,24,05,38,10.20
2014,08,24,05,39,10.20
2014,08,24,05,40,10.20
2014,08,24,05,41,10.20
2014,08,24,05,42,10.20
2014,08,24,05,43,10.20
2014,08,24,05,44,10.20
2014,08,24,05,45,10.20
2014,08,24,05,49,10.10
2014,08,24,05,50,10.10
2014,08,24,05,51,10.10
2014,08,24,05,52,10.10
2014,08,24,05,53,10.10
2014,08,24,05,54,10.10
2014,08,24,05,55,10.10
2014,08,24,05,56,10.10
2014,08,24,05,57,10.10
2014,08,24,05,58,10.10
2014,08,24,05,59,10.10
2014,08,24,06,00,10.10
2014,08,24,06,04,10.00
2014,08,24,06,05,10.00
2014,08,24,06,06,10.00
2014,08,24,06,07,10.00
2014,08,24,06,08,10.00
2014,08,24,06,09,10.00
2014,08,24,06,10,10.00
2014,08,24,06,11,10.00
2014,08,24,06,12,10.00
2014,08,24,06,13,10.00
2014,08,24,06,14,10.00
2014,08,24,06,15,10.00
2014,08,24,06,19,10.10
2014,08,24,06,20,10.10
2014,08,24,06,21,10.10
2014,08,24,06,22,10.10
2014,08,24,06,23,10.10
2014,08,24,06,24,10.10
2014,08,24,06,25,10.10
2014,08,24,06,26,10.10
2014,08,24,06,27,10.10
2014,08,24,06,28,10.10
2014,08,24,06,29,10.10
2014,08,24,06,30,10.10
2014,08,24,06,34,10.10
2014,08,24,06,35,10.10
2014,08,24,06,36,10.10
2014,08,24,06,37,10.10
2014,08,24,06,38,10.10
2014,08,24,06,39,10.10
2014,08,24,06,40,10.10
2014,08,24,06,41,10.10
2014,08,24,06,42,10.10
2014,08,24,06,43,10.10
2014,08,24,06,44,10.10
2014,08,24,06,45,10.10
2014,08,24,06,49,10.10
2014,08,24,06,50,10.10
2014,08,24,06,51,10.10
2014,08,24,06,52,10.10
2014,08,24,06,53,10.10
2014,08,24,06,54,10.10
2014,08,24,06,55,10.10
2014,08,24,06,56,10.10
2014,08,24,06,57,10.10
2014,08,24,06,58,10.10
2014,08,24,06,59,10.10
2014,08,24,07,00,10.10
2014,08,24,07,04,10.50
2014,08,24,07,05,10.50
2014,08,24,07,06,10.50
2014,08,24,07,07,10.50
2014,08,24,07,08,10.50
2014,08,24,07,09,10.50
2014,08,24,07,10,10.50
2014,08,24,07,11,10.50
2014,08,24,07,12,10.50
2014,08,24,07,13,10.50
2014,08,24,07,14,10.50
2014,08,24,07,15,10.50
2014,08,24,07,19,11.30
2014,08,24,07,20,11.30
2014,08,24,07,21,11.30
2014,08,24,07,22,11.30
2014,08,24,07,23,11.30
2014,08,24,07,24,11.30
2014,08,24,07,25,11.30
2014,08,24,07,26,11.30
2014,08,24,07,27,11.30
2014,08,24,07,28,11.30
2014,08,24,07,29,11.30
2014,08,24,07,30,11.30
2014,08,24,07,34,11.60
2014,08,24,07,35,11.60
2014,08,24,07,36,11.60
2014,08,24,07,37,11.60
2014,08,24,07,38,11.60
2014,08,24,07,39,11.60
2014,08,24,07,40,11.60
2014,08,24,07,41,11.60
2014,08,24,07,42,11.60
2014,08,24,07,43,11.60
2014,08,24,07,44,11.60
2014,08,24,07,45,11.60
2014,08,24,07,49,12.20
2014,08,24,07,50,12.20
2014,08,24,07,51,12.20
2014,08,24,07,52,12.20
2014,08,24,07,53,12.20
2014,08,24,07,54,12.20
2014,08,24,07,55,12.20
2014,08,24,07,56,12.20
2014,08,24,07,57,12.20
2014,08,24,07,58,12.20
2014,08,24,07,59,12.20
2014,08,24,08,00,12.20
2014,08,24,08,04,12.30
2014,08,24,08,05,12.30
2014,08,24,08,06,12.30
2014,08,24,08,07,12.30
2014,08,24,08,08,12.30
2014,08,24,08,09,12.30
2014,08,24,08,10,12.30
2014,08,24,08,11,12.30
2014,08,24,08,12,12.30
2014,08,24,08,13,12.30
2014,08,24,08,14,12.30
2014,08,24,08,15,12.30
2014,08,24,08,19,12.30
2014,08,24,08,20,12.30
2014,08,24,08,21,12.30
2014,08,24,08,22,12.30
2014,08,24,08,23,12.30
2014,08,24,08,24,12.30
2014,08,24,08,25,12.30
2014,08,24,08,26,12.30
2014,08,24,08,27,12.30
2014,08,24,08,28,12.30
2014,08,24,08,29,12.30
2014,08,24,08,30,12.30
2014,08,24,08,34,12.60
2014,08,24,08,35,12.60
2014,08,24,08,36,12.60
2014,08,24,08,37,12.60
2014,08,24,08,38,12.60
2014,08,24,08,39,12.60
2014,08,24,08,40,12.60
2014,08,24,08,41,12.60
2014,08,24,08,42,12.60
2014,08,24,08,43,12.60
2014,08,24,08,44,12.60
2014,08,24,08,45,12.60
2014,08,24,08,49,12.90
2014,08,24,08,50,12.90
2014,08,24,08,51,12.90
2014,08,24,08,52,12.90
2014,08,24,08,53,12.90
2014,08,24,08,54,12.90
2014,08,24,08,55,12.90
2014,08,24,08,56,12.90
2014,08,24,08,57,12.90
2014,08,24,08,58,12.90
2014,08,24,08,59,12.90
2014,08,24,09,00,12.90
2014,08,24,09,04,13.40
2014,08,24,09,05,13.40
2014,08,24,09,06,13.40
2014,08,24,09,07,13.40
2014,08,24,09,08,13.40
2014,08,24,09,09,13.40
2014,08,24,09,10,13.40
2014,08,24,09,11,13.40
2014,08,24,09,12,13.40
2014,08,24,09,13,13.40
2014,08,24,09,14,13.40
2014,08,24,09,15,13.40
2014,08,24,09,19,13.80
2014,08,24,09,20,13.80
2014,08,24,09,21,13.80
2014,08,24,09,22,13.80
2014,08,24,09,23,13.80
2014,08,24,09,24,13.80
2014,08,24,09,25,13.80
2014,08,24,09,26,13.80
2014,08,24,09,27,13.80
2014,08,24,09,28,13.80
2014,08,24,09,29,13.80
2014,08,24,09,30,13.80
2014,08,24,09,34,14.60
2014,08,24,09,35,14.60
2014,08,24,09,36,14.60
2014,08,24,09,37,14.60
2014,08,24,09,38,14.60
2014,08,24,09,39,14.60
2014,08,24,09,40,14.60
2014,08,24,09,41,14.60
2014,08,24,09,42,14.60
2014,08,24,09,43,14.60
2014,08,24,09,44,14.60
2014,08,24,09,45,14.60
2014,08,24,09,49,14.80
2014,08,24,09,50,14.80
2014,08,24,09,51,14.80
2014,08,24,09,52,14.80
2014,08,24,09,53,14.80
2014,08,24,09,54,14.80
2014,08,24,09,55,14.80
2014,08,24,09,56,14.80
2014,08,24,09,57,14.80
2014,08,24,09,58,14.80
2014,08,24,09,59,14.80
2014,08,24,10,00,14.80
2014,08,24,10,04,14.80
2014,08,24,10,05,14.80
2014,08,24,10,06,14.80
2014,08,24,10,07,14.80
2014,08,24,10,08,14.80
2014,08,24,10,09,14.80
2014,08,24,10,10,14.80
2014,08,24,10,11,14.80
2014,08,24,10,12,14.80
2014,08,24,10,13,14.80
2014,08,24,10,14,14.80
2014,08,24,10,15,14.80
2014,08,24,10,19,15.00
2014,08,24,10,20,15.00
2014,08,24,10,21,15.00
2014,08,24,10,22,15.00
2014,08,24,10,23,15.00
2014,08,24,10,24,15.00
2014,08,24,10,25,15.00
2014,08,24,10,26,15.00
2014,08,24,10,27,15.00
2014,08,24,10,28,15.00
2014,08,24,10,29,15.00
2014,08,24,10,30,15.00
2014,08,24,10,34,15.50
2014,08,24,10,35,15.50
2014,08,24,10,36,15.50
2014,08,24,10,37,15.50
2014,08,24,10,38,15.50
2014,08,24,10,39,15.50
2014,08,24,10,40,15.50
2014,08,24,10,41,15.50
2014,08,24,10,42,15.50
2014,08,24,10,43,15.50
2014,08,24,10,44,15.50
2014,08,24,10,45,15.50
2014,08,24,10,49,15.20
2014,08,24,10,50,15.20
2014,08,24,10,51,15.20
2014,08,24,10,52,15.20
2014,08,24,10,53,15.20
2014,08,24,10,54,15.20
2014,08,24,10,55,15.20
2014,08,24,10,56,15.20
2014,08,24,10,57,15.20
2014,08,24,10,58,15.20
2014,08,24,10,59,15.20
2014,08,24,11,00,15.20
2014,08,24,11,04,15.50
2014,08,24,11,05,15.50
2014,08,24,11,06,15.50
2014,08,24,11,07,15.50
2014,08,24,11,08,15.50
2014,08,24,11,09,15.50
2014,08,24,11,10,15.50
2014,08,24,11,11,15.50
2014,08,24,11,12,15.50
2014,08,24,11,13,15.50
2014,08,24,11,14,15.50
2014,08,24,11,15,15.50
2014,08,24,11,19,15.10
2014,08,24,11,20,15.10
2014,08,24,11,21,15.10
2014,08,24,11,22,15.10
2014,08,24,11,23,15.10
2014,08,24,11,24,15.10
2014,08,24,11,25,15.10
2014,08,24,11,26,15.10
2014,08,24,11,27,15.10
2014,08,24,11,28,15.10
2014,08,24,11,29,15.10
2014,08,24,11,30,15.10
2014,08,24,11,34,14.90
2014,08,24,11,35,14.90
2014,08,24,11,36,14.90
2014,08,24,11,37,14.90
2014,08,24,11,38,14.90
2014,08,24,11,39,14.90
2014,08,24,11,40,14.90
2014,08,24,11,41,14.90
2014,08,24,11,42,14.90
2014,08,24,11,43,14.90
2014,08,24,11,44,14.90
2014,08,24,11,45,14.90
2014,08,24,11,49,15.60
2014,08,24,11,50,15.60
2014,08,24,11,51,15.60
2014,08,24,11,52,15.60
2014,08,24,11,53,15.60
2014,08,24,11,54,15.60
2014,08,24,11,55,15.60
2014,08,24,11,56,15.60
2014,08,24,11,57,15.60
2014,08,24,11,58,15.60
2014,08,24,11,59,15.60
2014,08,24,12,00,15.60
2014,08,24,12,04,15.30
2014,08,24,12,05,15.30
2014,08,24,12,06,15.30
2014,08,24,12,07,15.30
2014,08,24,12,08,15.30
2014,08,24,12,09,15.30
2014,08,24,12,10,15.30
2014,08,24,12,11,15.30
2014,08,24,12,12,15.30
2014,08,24,12,13,15.30
2014,08,24,12,14,15.30
2014,08,24,12,15,15.30
2014,08,24,12,19,13.80
2014,08,24,12,20,13.80
2014,08,24,12,21,13.80
2014,08,24,12,22,13.80
2014,08,24,12,23,13.80
2014,08,24,12,24,13.80
2014,08,24,12,25,13.80
2014,08,24,12,26,13.80
2014,08,24,12,27,13.80
2014,08,24,12,28,13.80
2014,08,24,12,29,13.80
2014,08,24,12,30,13.80
2014,08,24,12,34,13.20
2014,08,24,12,35,13.20
2014,08,24,12,36,13.20
2014,08,24,12,37,13.20
2014,08,24,12,38,13.20
2014,08,24,12,39,13.20
2014,08,24,12,40,13.20
2014,08,24,12,41,13.20
2014,08,24,12,42,13.20
2014,08,24,12,43,13.20
2014,08,24,12,44,13.20
2014,08,24,12,45,13.20
2014,08,24,12,49,13.20
2014,08,24,12,50,13.20
2014,08,24,12,51,13.20
2014,08,24,12,52,13.20
2014,08,24,12,53,13.20
2014,08,24,12,54,13.20
2014,08,24,12,55,13.20
2014,08,24,12,56,13.20
2014,08,24,12,57,13.20
2014,08,24,12,58,13.20
2014,08,24,12,59,13.20
2014,08,24,13,00,13.20
2014,08,24,13,04,13.10
2014,08,24,13,05,13.10
2014,08,24,13,06,13.10
2014,08,24,13,07,13.10
2014,08,24,13,08,13.10
2014,08,24,13,09,13.10
2014,08,24,13,10,13.10
2014,08,24,13,11,13.10
2014,08,24,13,12,13.10
2014,08,24,13,13,13.10
2014,08,24,13,14,13.10
2014,08,24,13,15,13.10
2014,08,24,13,19,13.40
2014,08,24,13,20,13.40
2014,08,24,13,21,13.40
2014,08,24,13,22,13.40
2014,08,24,13,23,13.40
2014,08,24,13,24,13.40
2014,08,24,13,25,13.40
2014,08,24,13,26,13.40
2014,08,24,13,27,13.40
2014,08,24,13,28,13.40
2014,08,24,13,29,13.40
2014,08,24,13,30,13.40
2014,08,24,13,34,13.30
2014,08,24,13,35,13.30
2014,08,24,13,36,13.30
2014,08,24,13,37,13.30
2014,08,24,13,38,13.30
2014,08,24,13,39,13.30
2014,08,24,13,40,13.30
2014,08,24,13,41,13.30
2014,08,24,13,42,13.30
2014,08,24,13,43,13.30
2014,08,24,13,44,13.30
2014,08,24,13,45,13.30
2014,08,24,13,49,13.60
2014,08,24,13,50,13.60
2014,08,24,13,51,13.60
2014,08,24,13,52,13.60
2014,08,24,13,53,13.60
2014,08,24,13,54,13.60
2014,08,24,13,55,13.60
2014,08,24,13,56,13.60
2014,08,24,13,57,13.60
2014,08,24,13,58,13.60
2014,08,24,13,59,13.60
2014,08,24,14,00,13.60
2014,08,24,14,04,13.50
2014,08,24,14,05,13.50
2014,08,24,14,06,13.50
2014,08,24,14,07,13.50
2014,08,24,14,08,13.50
2014,08,24,14,09,13.50
2014,08,24,14,10,13.50
2014,08,24,14,11,13.50
2014,08,24,14,12,13.50
2014,08,24,14,13,13.50
2014,08,24,14,14,13.50
2014,08,24,14,15,13.50
2014,08,24,14,19,13.30
2014,08,24,14,20,13.30
2014,08,24,14,21,13.30
2014,08,24,14,22,13.30
2014,08,24,14,23,13.30
2014,08,24,14,24,13.30
2014,08,24,14,25,13.30
2014,08,24,14,26,13.30
2014,08,24,14,27,13.30
2014,08,24,14,28,13.30
2014,08,24,14,29,13.30
2014,08,24,14,30,13.30
2014,08,24,14,34,13.60
2014,08,24,14,35,13.60
2014,08,24,14,36,13.60
2014,08,24,14,37,13.60
2014,08,24,14,38,13.60
2014,08,24,14,39,13.60
2014,08,24,14,40,13.60
2014,08,24,14,41,13.60
2014,08,24,14,42,13.60
2014,08,24,14,43,13.60
2014,08,24,14,44,13.60
2014,08,24,14,45,13.60
2014,08,24,14,49,13.50
2014,08,24,14,50,13.50
2014,08,24,14,51,13.50
2014,08,24,14,52,13.50
2014,08,24,14,53,13.50
2014,08,24,14,54,13.50
2014,08,24,14,55,13.50
2014,08,24,14,56,13.50
2014,08,24,14,57,13.50
2014,08,24,14,58,13.50
2014,08,24,14,59,13.50
2014,08,24,15,00,13.50
2014,08,24,15,04,13.60
2014,08,24,15,05,13.60
2014,08,24,15,06,13.60
2014,08,24,15,07,13.60
2014,08,24,15,08,13.60
2014,08,24,15,09,13.60
2014,08,24,15,10,13.60
2014,08,24,15,11,13.60
2014,08,24,15,12,13.60
2014,08,24,15,13,13.60
2014,08,24,15,14,13.60
2014,08,24,15,15,13.60
2014,08,24,15,19,13.90
2014,08,24,15,20,13.90
2014,08,24,15,21,13.90
2014,08,24,15,22,13.90
2014,08,24,15,23,13.90
2014,08,24,15,24,13.90
2014,08,24,15,25,13.90
2014,08,24,15,26,13.90
2014,08,24,15,27,13.90
2014,08,24,15,28,13.90
2014,08,24,15,29,13.90
2014,08,24,15,30,13.90
2014,08,24,15,34,13.80
2014,08,24,15,35,13.80
2014,08,24,15,36,13.80
2014,08,24,15,37,13.80
2014,08,24,15,38,13.80
2014,08,24,15,39,13.80
2014,08,24,15,40,13.80
2014,08,24,15,41,13.80
2014,08,24,15,42,13.80
2014,08,24,15,43,13.80
2014,08,24,15,44,13.80
2014,08,24,15,45,13.80
2014,08,24,15,49,14.30
2014,08,24,15,50,14.30
2014,08,24,15,51,14.30
2014,08,24,15,52,14.30
2014,08,24,15,53,14.30
2014,08,24,15,54,14.30
2014,08,24,15,55,14.30
2014,08,24,15,56,14.30
2014,08,24,15,57,14.30
2014,08,24,15,58,14.30
2014,08,24,15,59,14.30
2014,08,24,16,00,14.30
2014,08,24,16,04,14.50
2014,08,24,16,05,14.50
2014,08,24,16,06,14.50
2014,08,24,16,07,14.50
2014,08,24,16,08,14.50
2014,08,24,16,09,14.50
2014,08,24,16,10,14.50
2014,08,24,16,11,14.50
2014,08,24,16,12,14.50
2014,08,24,16,13,14.50
2014,08,24,16,14,14.50
2014,08,24,16,15,14.50
2014,08,24,16,19,14.80
2014,08,24,16,20,14.80
2014,08,24,16,21,14.80
2014,08,24,16,22,14.80
2014,08,24,16,23,14.80
2014,08,24,16,24,14.80
2014,08,24,16,25,14.80
2014,08,24,16,26,14.80
2014,08,24,16,27,14.80
2014,08,24,16,28,14.80
2014,08,24,16,29,14.80
2014,08,24,16,30,14.80
2014,08,24,16,34,14.90
2014,08,24,16,35,14.90
2014,08,24,16,36,14.90
2014,08,24,16,37,14.90
2014,08,24,16,38,14.90
2014,08,24,16,39,14.90
2014,08,24,16,40,14.90
2014,08,24,16,41,14.90
2014,08,24,16,42,14.90
2014,08,24,16,43,14.90
2014,08,24,16,44,14.90
2014,08,24,16,45,14.90
2014,08,24,16,49,14.80
2014,08,24,16,50,14.80
2014,08,24,16,51,14.80
2014,08,24,16,52,14.80
2014,08,24,16,53,14.80
2014,08,24,16,54,14.80
2014,08,24,16,55,14.80
2014,08,24,16,56,14.80
2014,08,24,16,57,14.80
2014,08,24,16,58,14.80
2014,08,24,16,59,14.80
2014,08,24,17,00,14.80
2014,08,24,17,04,15.10
2014,08,24,17,05,15.10
2014,08,24,17,06,15.10
2014,08,24,17,07,15.10
2014,08,24,17,08,15.10
2014,08,24,17,09,15.10
2014,08,24,17,10,15.10
2014,08,24,17,11,15.10
2014,08,24,17,12,15.10
2014,08,24,17,13,15.10
2014,08,24,17,14,15.10
2014,08,24,17,15,15.10
2014,08,24,17,19,15.00
2014,08,24,17,20,15.00
2014,08,24,17,21,15.00
2014,08,24,17,22,15.00
2014,08,24,17,23,15.00
2014,08,24,17,24,15.00
2014,08,24,17,25,15.00
2014,08,24,17,26,15.00
2014,08,24,17,27,15.00
2014,08,24,17,28,15.00
2014,08,24,17,29,15.00
2014,08,24,17,30,15.00
2014,08,24,17,34,15.30
2014,08,24,17,35,15.30
2014,08,24,17,36,15.30
2014,08,24,17,37,15.30
2014,08,24,17,38,15.30
2014,08,24,17,39,15.30
2014,08,24,17,40,15.30
2014,08,24,17,41,15.30
2014,08,24,17,42,15.30
2014,08,24,17,43,15.30
2014,08,24,17,44,15.30
2014,08,24,17,45,15.30
2014,08,24,17,49,15.20
2014,08,24,17,50,15.20
2014,08,24,17,51,15.20
2014,08,24,17,52,15.20
2014,08,24,17,53,15.20
2014,08,24,17,54,15.20
2014,08,24,17,55,15.20
2014,08,24,17,56,15.20
2014,08,24,17,57,15.20
2014,08,24,17,58,15.20
2014,08,24,17,59,15.20
2014,08,24,18,00,15.20
2014,08,24,18,04,15.10
2014,08,24,18,05,15.10
2014,08,24,18,06,15.10
2014,08,24,18,07,15.10
2014,08,24,18,08,15.10
2014,08,24,18,09,15.10
2014,08,24,18,10,15.10
2014,08,24,18,11,15.10
2014,08,24,18,12,15.10
2014,08,24,18,13,15.10
2014,08,24,18,14,15.10
2014,08,24,18,15,15.10
2014,08,24,18,19,14.90
2014,08,24,18,20,14.90
2014,08,24,18,21,14.90
2014,08,24,18,22,14.90
2014,08,24,18,23,14.90
2014,08,24,18,24,14.90
2014,08,24,18,25,14.90
2014,08,24,18,26,14.90
2014,08,24,18,27,14.90
2014,08,24,18,28,14.90
2014,08,24,18,29,14.90
2014,08,24,18,30,14.90
2014,08,24,18,34,14.70
2014,08,24,18,35,14.70
2014,08,24,18,36,14.70
2014,08,24,18,37,14.70
2014,08,24,18,38,14.70
2014,08,24,18,39,14.70
2014,08,24,18,40,14.70
2014,08,24,18,41,14.70
2014,08,24,18,42,14.70
2014,08,24,18,43,14.70
2014,08,24,18,44,14.70
2014,08,24,18,45,14.70
2014,08,24,18,49,14.40
2014,08,24,18,50,14.40
2014,08,24,18,51,14.40
2014,08,24,18,52,14.40
2014,08,24,18,53,14.40
2014,08,24,18,54,14.40
2014,08,24,18,55,14.40
2014,08,24,18,56,14.40
2014,08,24,18,57,14.40
2014,08,24,18,58,14.40
2014,08,24,18,59,14.40
2014,08,24,19,00,14.40
2014,08,24,19,04,13.90
2014,08,24,19,05,13.90
2014,08,24,19,06,13.90
2014,08,24,19,07,13.90
2014,08,24,19,08,13.90
2014,08,24,19,09,13.90
2014,08,24,19,10,13.90
2014,08,24,19,11,13.90
2014,08,24,19,12,13.90
2014,08,24,19,13,13.90
2014,08,24,19,14,13.90
2014,08,24,19,15,13.90
2014,08,24,19,19,13.80
2014,08,24,19,20,13.80
2014,08,24,19,21,13.80
2014,08,24,19,22,13.80
2014,08,24,19,23,13.80
2014,08,24,19,24,13.80
2014,08,24,19,25,13.80
2014,08,24,19,26,13.80
2014,08,24,19,27,13.80
2014,08,24,19,28,13.80
2014,08,24,19,29,13.80
2014,08,24,19,30,13.80
2014,08,24,19,34,13.90
2014,08,24,19,35,13.90
2014,08,24,19,36,13.90
2014,08,24,19,37,13.90
2014,08,24,19,38,13.90
2014,08,24,19,39,13.90
2014,08,24,19,40,13.90
2014,08,24,19,41,13.90
2014,08,24,19,42,13.90
2014,08,24,19,43,13.90
2014,08,24,19,44,13.90
2014,08,24,19,45,13.90
2014,08,24,19,49,14.50
2014,08,24,19,50,14.50
2014,08,24,19,51,14.50
2014,08,24,19,52,14.50
2014,08,24,19,53,14.50
2014,08,24,19,54,14.50
2014,08,24,19,55,14.50
2014,08,24,19,56,14.50
2014,08,24,19,57,14.50
2014,08,24,19,58,14.50
2014,08,24,19,59,14.50
2014,08,24,20,00,14.50
2014,08,24,20,04,14.40
2014,08,24,20,05,14.40
2014,08,24,20,06,14.40
2014,08,24,20,07,14.40
2014,08,24,20,08,14.40
2014,08,24,20,09,14.40
2014,08,24,20,10,14.40
2014,08,24,20,11,14.40
2014,08,24,20,12,14.40
2014,08,24,20,13,14.40
2014,08,24,20,14,14.40
2014,08,24,20,15,14.40
2014,08,24,20,19,14.60
2014,08,24,20,20,14.60
2014,08,24,20,21,14.60
2014,08,24,20,22,14.60
2014,08,24,20,23,14.60
2014,08,24,20,24,14.60
2014,08,24,20,25,14.60
2014,08,24,20,26,14.60
2014,08,24,20,27,14.60
2014,08,24,20,28,14.60
2014,08,24,20,29,14.60
2014,08,24,20,30,14.60
2014,08,24,20,34,13.80
2014,08,24,20,35,13.80
2014,08,24,20,36,13.80
2014,08,24,20,37,13.80
2014,08,24,20,38,13.80
2014,08,24,20,39,13.80
2014,08,24,20,40,13.80
2014,08,24,20,41,13.80
2014,08,24,20,42,13.80
2014,08,24,20,43,13.80
2014,08,24,20,44,13.80
2014,08,24,20,45,13.80
2014,08,24,20,49,13.30
2014,08,24,20,50,13.30
2014,08,24,20,51,13.30
2014,08,24,20,52,13.30
2014,08,24,20,53,13.30
2014,08,24,20,54,13.30
2014,08,24,20,55,13.30
2014,08,24,20,56,13.30
2014,08,24,20,57,13.30
2014,08,24,20,58,13.30
2014,08,24,20,59,13.30
2014,08,24,21,00,13.30
2014,08,24,21,04,13.30
2014,08,24,21,05,13.30
2014,08,24,21,06,13.30
2014,08,24,21,07,13.30
2014,08,24,21,08,13.30
2014,08,24,21,09,13.30
2014,08,24,21,10,13.30
2014,08,24,21,11,13.30
2014,08,24,21,12,13.30
2014,08,24,21,13,13.30
2014,08,24,21,14,13.30
2014,08,24,21,15,13.30
2014,08,24,21,19,13.30
2014,08,24,21,20,13.30
2014,08,24,21,21,13.30
2014,08,24,21,22,13.30
2014,08,24,21,23,13.30
2014,08,24,21,24,13.30
2014,08,24,21,25,13.30
2014,08,24,21,26,13.30
2014,08,24,21,27,13.30
2014,08,24,21,28,13.30
2014,08,24,21,29,13.30
2014,08,24,21,30,13.30
2014,08,24,21,34,13.40
2014,08,24,21,35,13.40
2014,08,24,21,36,13.40
2014,08,24,21,37,13.40
2014,08,24,21,38,13.40
2014,08,24,21,39,13.40
2014,08,24,21,40,13.40